FW3268 Weather Reports


Display with metric or nautical units.
time (UTC)temp
F
wind
direction
speed
MPH
gust
MPH
rain 1hr
in
rain 24hr
in
rain mn
in
humidity
%
barometer
mb
20260905154500 81 229 0.0 0.0 0.00 0.00 0.00 75 1014.2
20260905153000 80 201 0.0 0.0 0.00 0.00 0.00 78 1014.2
20260905151500 79 231 0.0 0.0 0.00 0.00 0.00 77 1014.1
20260905150003 78 198 0.0 0.0 0.00 0.00 0.00 79 1014.5
20260905144500 77 193 0.0 0.0 0.00 0.00 0.00 79 1014.2
20260905143000 77 165 0.0 0.0 0.00 0.00 0.00 80 1014.3
20260905141500 75 160 0.0 0.0 0.00 0.00 0.00 83 1014.0
20260905140005 75 174 0.0 0.0 0.00 0.00 0.00 83 1014.1
20260905134501 74 160 0.0 0.0 0.00 0.00 0.00 85 1013.9
20260905133000 73 108 0.0 0.0 0.00 0.00 0.00 86 1014.1
20260905130004 71 149 0.0 0.0 0.00 0.00 0.00 89 1014.5
20260905124501 70 127 0.0 0.0 0.00 0.00 0.00 90 1014.4
20260905123000 70 120 0.0 0.0 0.00 0.00 0.00 92 1014.3
20260905121500 69 143 0.0 0.0 0.00 0.00 0.00 93 1014.4
20260905120004 69 141 0.0 0.0 0.00 0.00 0.00 93 1014.2
20260905114459 69 167 0.0 0.0 0.00 0.00 0.00 92 1014.2
20260905112959 69 116 0.0 0.0 0.00 0.00 0.00 92 1014.2
20260905111459 69 97 0.0 0.0 0.00 0.00 0.00 91 1013.9
20260905103000 70 118 0.0 0.0 0.00 0.00 0.00 90 1014.1
20260905101500 70 91 0.0 0.0 0.00 0.00 0.00 89 1014.0
20260905100001 73 91 0.0 0.0 0.00 0.00 0.00 89 1014.1
20260905094459 74 279 0.0 0.0 0.00 0.00 0.00 91 1013.1
20260905093000 75 279 0.0 0.0 0.00 0.00 0.00 90 1013.1
20260905091459 77 279 0.0 0.0 0.00 0.00 0.00 88 1013.1
20260905090001 77 279 0.0 0.0 0.00 0.00 0.00 88 1013.0
20260905084459 77 283 0.0 0.0 0.00 0.00 0.00 88 1012.9
20260905082959 77 267 0.0 0.0 0.00 0.00 0.00 88 1013.0
20260905081459 76 262 0.0 0.0 0.00 0.00 0.00 90 1012.8
20260905080002 76 260 0.0 0.0 0.00 0.00 0.00 90 1012.7
20260905073000 75 247 0.0 0.0 0.00 0.00 0.00 93 1012.5
20260905064459 74 248 0.0 0.0 0.00 0.00 0.00 94 1012.0
20260905063000 74 249 0.0 0.0 0.00 0.00 0.00 95 1012.4
20260905061459 75 240 0.0 0.0 0.00 0.00 0.00 95 1012.7
20260905060002 75 156 0.0 0.0 0.00 0.00 0.00 95 1013.0
20260905054459 75 156 0.0 0.0 0.00 0.00 0.00 95 1013.2
20260905051500 75 142 0.0 0.0 0.00 0.00 0.00 94 1013.3
20260905050003 75 143 0.0 0.0 0.00 0.00 0.00 95 1013.4
20260905043000 76 143 0.0 0.0 0.00 0.00 0.00 95 1013.5
20260905034501 76 143 0.0 0.0 0.00 0.00 0.00 93 1013.8
20260905033001 77 143 0.0 0.0 0.00 0.00 0.00 93 1013.8
20260905031501 78 143 0.0 0.0 0.00 0.00 0.00 93 1013.9
20260905030003 78 143 0.0 0.0 0.00 0.00 0.00 92 1013.8
20260905024502 78 142 0.0 0.0 0.00 0.00 0.00 92 1013.8
20260905021503 79 144 0.0 0.0 0.00 0.00 0.00 91 1013.6
20260905020005 79 144 0.0 0.0 0.00 0.00 0.00 91 1013.5
20260905013001 80 144 0.0 0.0 0.00 0.00 0.00 90 1013.5
20260905011501 80 137 0.0 0.0 0.00 0.00 0.00 89 1013.3
20260905010004 81 126 0.0 0.0 0.00 0.00 0.00 88 1013.3
20260905004502 81 166 0.0 0.0 0.00 0.00 0.00 87 1013.1
20260905003000 82 155 0.0 0.0 0.00 0.00 0.00 88 1013.2
20260905000003 84 132 0.0 0.0 0.00 0.00 0.00 86 1013.3
20260904233002 86 122 0.0 0.0 0.00 0.00 0.00 81 1013.2
20260904231500 87 113 0.0 0.0 0.00 0.00 0.00 80 1013.2
20260904230004 87 118 0.0 0.0 0.00 0.00 0.00 80 1013.3
20260904224459 89 90 0.0 0.0 0.00 0.00 0.00 77 1013.2
20260904223001 89 121 0.0 0.0 0.00 0.00 0.00 75 1013.1
20260904221459 90 109 0.0 0.0 0.00 0.00 0.00 75 1013.1
20260904213002 90 85 0.0 0.0 0.00 0.00 0.00 73 1013.1
20260904211501 90 101 0.0 0.0 0.00 0.00 0.00 73 1013.1
20260904210004 90 137 0.0 0.0 0.00 0.00 0.00 74 1012.9
20260904204501 92 185 0.0 0.0 0.00 0.00 0.00 65 1012.9
20260904203001 93 147 0.0 0.0 0.00 0.00 0.00 63 1013.4
20260904201502 93 50 0.0 0.0 0.00 0.00 0.00 63 1013.5
20260904194503 92 68 0.0 0.0 0.00 0.00 0.00 64 1014.0
20260904193001 92 60 0.0 0.0 0.00 0.00 0.00 67 1014.5
20260904190003 91 22 0.0 0.0 0.00 0.00 0.00 67 1015.1
20260904183000 91 289 0.0 0.0 0.00 0.00 0.00 66 1015.3
20260904181459 91 305 0.0 0.0 0.00 0.00 0.00 64 1015.2
20260904180004 90 291 0.0 0.0 0.00 0.00 0.00 66 1015.3
20260904174500 89 262 0.0 0.0 0.00 0.00 0.00 65 1015.2
20260904172959 88 282 0.0 0.0 0.00 0.00 0.00 73 1015.3
20260904171500 86 298 0.0 0.0 0.00 0.00 0.00 76 1015.5
20260904170004 84 284 0.0 0.0 0.00 0.00 0.00 81 1015.6
20260904164500 85 288 0.0 0.0 0.00 0.00 0.00 75 1016.1
20260904163000 89 283 0.0 0.0 0.00 0.00 0.00 71 1016.2
20260904161500 90 285 0.0 0.0 0.00 0.00 0.00 69 1016.1